Weather History for Hammond, LA

Change the Weather History Date:

Friday, February 1, 2013

  Actual Average (KMSY) Record (KMSY)
Temperature  
Mean Temperature 52 °F -  
Max Temperature 66 °F 65 °F 82 °F (1957)
Min Temperature 39 °F 47 °F 27 °F (1980)
Degree Days  
Heating Degree Days 12    
Growing Degree Days 2 (Base 50)    
Moisture  
Dew Point 41 °F    
Average Humidity 77    
Maximum Humidity 100    
Minimum Humidity 32    
Precipitation  
Precipitation 0.00 in - - ()
Sea Level Pressure  
Sea Level Pressure 30.36 in    
Wind  
Wind Speed 1 mph (NE)    
Max Wind Speed 7 mph    
Max Gust Speed -    
Visibility 10 miles    
Events      
Averages and records for this station are not official NWS values.
T = Trace of Precipitation, MM = Missing Value Source: NWS Daily Summary

Daily Weather History Graph

Daily Weather History Graph

Search for Another Location

Airport:

Trip Planner

Search our weather history database for the weather conditions in past years. The results will help you decide how hot, cold, wet, or windy it might be!

Date:

Astronomy

Feb. 01, 2013 Rise Set
Actual Time 6:52 AM CST 5:38 PM CST
Civil Twilight 6:27 AM CST 6:03 PM CST
Nautical Twilight 5:58 AM CST 6:32 PM CST
Astronomical Twilight 5:30 AM CST 7:00 PM CST
Moon 11:15 PM CST (2/1) 9:53 AM CST (2/1)
Length of Visible Light 11h 36m
Length of Day
10h 45m
Waning Gibbous, 70% of the Moon is Illuminated
Feb 1
Waning Gibbous
Feb 3
Last Quarter
Feb 10
New
Feb 17
First Quarter
Feb 25
Full

Hourly Weather History & Observations

Time (CST) Temp. Windchill Dew Point Humidity Pressure Visibility Wind Dir Wind Speed Gust Speed Precip Events Conditions
12:15 AM 46.4 °F - 37.4 °F 71% 30.35 in 10.0 mi Calm Calm - N/A   Clear
12:35 AM 44.6 °F - 39.2 °F 81% 30.36 in 10.0 mi Calm Calm - N/A   Clear
1:15 AM 42.8 °F - 39.2 °F 87% 30.36 in 10.0 mi Calm Calm - N/A   Clear
1:35 AM 42.8 °F - 39.2 °F 87% 30.35 in 10.0 mi Calm Calm - N/A   Clear
1:55 AM 42.8 °F - 39.2 °F 87% 30.35 in 10.0 mi Calm Calm - N/A   Clear
2:15 AM 42.8 °F - 39.2 °F 87% 30.35 in 10.0 mi Calm Calm - N/A   Clear
2:35 AM 42.8 °F - 39.2 °F 87% 30.34 in 10.0 mi Calm Calm - N/A   Clear
2:55 AM 42.8 °F - 41.0 °F 93% 30.33 in 10.0 mi Calm Calm - N/A   Clear
3:15 AM 41.0 °F - 39.2 °F 93% 30.34 in 10.0 mi Calm Calm - N/A   Clear
3:35 AM 41.0 °F - 39.2 °F 93% 30.34 in 10.0 mi Calm Calm - N/A   Clear
3:55 AM 39.2 °F - 39.2 °F 100% 30.34 in 10.0 mi Calm Calm - N/A   Clear
4:15 AM 39.2 °F - 39.2 °F 100% 30.34 in 10.0 mi Calm Calm - N/A   Clear
4:35 AM 41.0 °F - 39.2 °F 93% 30.34 in 10.0 mi Calm Calm - N/A   Clear
4:55 AM 41.0 °F - 39.2 °F 93% 30.35 in 10.0 mi Calm Calm - N/A   Clear
5:15 AM 41.0 °F - 39.2 °F 93% 30.35 in 10.0 mi Calm Calm - N/A   Clear
5:35 AM 41.0 °F - 39.2 °F 93% 30.36 in 10.0 mi Calm Calm - N/A   Clear
5:55 AM 39.2 °F - 39.2 °F 100% 30.37 in 10.0 mi Calm Calm - N/A   Clear
6:15 AM 39.2 °F 37.0 °F 39.2 °F 100% 30.38 in 10.0 mi NNW 3.5 mph - N/A   Clear
6:35 AM 41.0 °F - 41.0 °F 100% 30.39 in 10.0 mi Calm Calm - N/A   Clear
6:55 AM 41.0 °F - 41.0 °F 100% 30.40 in 10.0 mi Calm Calm - N/A   Clear
7:15 AM 41.0 °F - 41.0 °F 100% 30.41 in 10.0 mi Calm Calm - N/A   Clear
7:35 AM 42.8 °F - 41.0 °F 93% 30.41 in 10.0 mi Calm Calm - N/A   Clear
8:15 AM 44.6 °F - 41.0 °F 87% 30.41 in 10.0 mi Calm Calm - N/A   Clear
8:35 AM 46.4 °F - 41.0 °F 81% 30.41 in 10.0 mi Calm Calm - N/A   Clear
8:55 AM 46.4 °F 45.2 °F 41.0 °F 81% 30.42 in 10.0 mi NNE 3.5 mph - N/A   Clear
9:15 AM 48.2 °F - 39.2 °F 71% 30.42 in 10.0 mi NE 4.6 mph - N/A   Clear
9:35 AM 48.2 °F - 41.0 °F 76% 30.42 in 10.0 mi Calm Calm - N/A   Clear
9:55 AM 50.0 °F - 41.0 °F 71% 30.43 in 10.0 mi NE 5.8 mph - N/A   Clear
10:15 AM 51.8 °F - 41.0 °F 67% 30.42 in 10.0 mi NNE 5.8 mph - N/A   Clear
10:35 AM 53.6 °F - 41.0 °F 62% 30.43 in 10.0 mi NE 4.6 mph - N/A   Clear
10:55 AM 55.4 °F - 41.0 °F 58% 30.42 in 10.0 mi NNE 3.5 mph - N/A   Clear
11:15 AM 57.2 °F - 41.0 °F 55% 30.41 in 10.0 mi NNE 5.8 mph - N/A   Clear
11:35 AM 59.0 °F - 42.8 °F 55% 30.40 in 10.0 mi NE 3.5 mph - N/A   Clear
12:15 PM 60.8 °F - 41.0 °F 48% 30.38 in 10.0 mi NE 5.8 mph - N/A   Clear
12:35 PM 62.6 °F - 39.2 °F 42% 30.37 in 10.0 mi NE 5.8 mph - N/A   Clear
1:15 PM 62.6 °F - 37.4 °F 39% 30.36 in 10.0 mi NE 6.9 mph - N/A   Clear
1:35 PM 64.4 °F - 37.4 °F 37% 30.36 in 10.0 mi NNE 6.9 mph - N/A   Clear
2:15 PM 64.4 °F - 35.6 °F 34% 30.35 in 10.0 mi North 3.5 mph - N/A   Clear
2:35 PM 66.2 °F - 37.4 °F 35% 30.34 in 7.0 mi Calm Calm - N/A   Clear
2:55 PM 66.2 °F - 37.4 °F 35% 30.34 in 10.0 mi NE 3.5 mph - N/A   Clear
3:15 PM 66.2 °F - 35.6 °F 32% 30.33 in 10.0 mi East 4.6 mph - N/A   Clear
3:55 PM 66.2 °F - 37.4 °F 35% 30.33 in 10.0 mi North 3.5 mph - N/A   Clear
4:55 PM 62.6 °F - 39.2 °F 42% 30.33 in 10.0 mi NE 3.5 mph - N/A   Clear
5:15 PM 62.6 °F - 39.2 °F 42% 30.33 in 10.0 mi NE 3.5 mph - N/A   Clear
5:35 PM 60.8 °F - 41.0 °F 48% 30.33 in 10.0 mi Calm Calm - N/A   Clear
5:55 PM 57.2 °F - 42.8 °F 59% 30.33 in 10.0 mi Calm Calm - N/A   Clear
6:15 PM 53.6 °F - 42.8 °F 67% 30.34 in 10.0 mi Calm Calm - N/A   Clear
6:35 PM 53.6 °F - 42.8 °F 67% 30.34 in 10.0 mi Calm Calm - N/A   Clear
6:55 PM 51.8 °F - 44.6 °F 76% 30.34 in 10.0 mi Calm Calm - N/A   Clear
7:15 PM 50.0 °F - 44.6 °F 82% 30.34 in 10.0 mi Calm Calm - N/A   Clear
7:35 PM 50.0 °F - 44.6 °F 82% 30.34 in 10.0 mi Calm Calm - N/A   Clear
7:55 PM 48.2 °F - 44.6 °F 87% 30.34 in 10.0 mi Calm Calm - N/A   Clear
8:15 PM 46.4 °F - 42.8 °F 87% 30.34 in 10.0 mi Calm Calm - N/A   Clear
8:35 PM 44.6 °F - 42.8 °F 93% 30.35 in 10.0 mi Calm Calm - N/A   Clear
8:55 PM 44.6 °F - 42.8 °F 93% 30.35 in 10.0 mi Calm Calm - N/A   Clear
9:15 PM 44.6 °F - 42.8 °F 93% 30.35 in 10.0 mi Calm Calm - N/A   Clear
9:35 PM 44.6 °F - 42.8 °F 93% 30.35 in 10.0 mi Calm Calm - N/A   Clear
9:55 PM 44.6 °F - 42.8 °F 93% 30.35 in 10.0 mi Calm Calm - N/A   Clear
10:15 PM 44.6 °F - 44.6 °F 100% 30.35 in 10.0 mi Calm Calm - N/A   Clear
10:35 PM 44.6 °F - 42.8 °F 93% 30.34 in 10.0 mi Calm Calm - N/A   Clear
10:55 PM 46.4 °F - 44.6 °F 93% 30.35 in 10.0 mi Calm Calm - N/A   Clear
11:15 PM 42.8 °F - 42.8 °F 100% 30.35 in 10.0 mi Calm Calm - N/A   Clear
11:35 PM 42.8 °F - 42.8 °F 100% 30.35 in 10.0 mi Calm Calm - N/A   Clear
11:55 PM 42.8 °F - 41.0 °F 93% 30.35 in 10.0 mi Calm Calm - N/A   Clear